Caldwell, NJ

2:14 PM EDT on May 26, 2017 (GMT -0400)
Essex County

Weather History for KCDW - February, 2012

Change the Weather History Date:

Sunday, February 12, 2012

  Actual Average Record
Temperature  
Mean Temperature 26 °F -  
Max Temperature 32 °F 39 °F 64 °F (1999)
Min Temperature 19 °F 19 °F 1 °F (2014)
Degree Days  
Heating Degree Days 40    
Moisture  
Dew Point 10 °F    
Average Humidity 52    
Maximum Humidity 80    
Minimum Humidity 32    
Precipitation  
Precipitation 0.00 in - - ()
Sea Level Pressure  
Sea Level Pressure 29.88 in    
Wind  
Wind Speed 11 mph (NW)    
Max Wind Speed 22 mph    
Max Gust Speed 29 mph    
Visibility 9 miles    
Events Snow    
Averages and records for this station are not official NWS values.
T = Trace of Precipitation, MM = Missing Value Source: NWS Daily Summary

Daily Weather History Graph

Daily Weather History Graph

Search for Another Location

Airport or City:

Trip Planner

Search our weather history database for the weather conditions in past years. The results will help you decide how hot, cold, wet, or windy it might be!

Date:

Astronomy

Feb. 12, 2012 Rise Set
Actual Time 6:55 AM EST 5:27 PM EST
Civil Twilight 6:27 AM EST 5:55 PM EST
Nautical Twilight 5:55 AM EST 6:28 PM EST
Astronomical Twilight 5:23 AM EST 7:00 PM EST
Moon 11:25 PM EST (2/12) 9:09 AM EST (2/12)
Length of Visible Light 11h 28m
Length of Day
10h 31m
Waning Gibbous, 72% of the Moon is Illuminated
Feb 12
Waning Gibbous
Feb 14
Last Quarter
Feb 21
New
Feb 29
First Quarter
Mar 8
Full

Hourly Weather History & Observations

Time (EST) Temp. Windchill Dew Point Humidity Pressure Visibility Wind Dir Wind Speed Gust Speed Precip Events Conditions
12:53 AM 26.1 °F 14.0 °F 10.9 °F 53% 29.75 in 10.0 mi NNW 15.0 mph 21.9 mph N/A   Overcast
1:53 AM 23.0 °F 13.1 °F -2.9 °F 32% 29.80 in 10.0 mi NNW 9.2 mph 28.8 mph N/A   Overcast
2:53 AM 19.9 °F 7.3 °F -4.0 °F 35% 29.83 in 10.0 mi NW 12.7 mph 24.2 mph N/A   Clear
3:53 AM 19.0 °F 6.1 °F 1.0 °F 46% 29.84 in 10.0 mi NNW 12.7 mph 23.0 mph N/A   Clear
4:53 AM 19.0 °F 10.0 °F 3.0 °F 50% 29.86 in 10.0 mi NW 6.9 mph - N/A   Clear
5:53 AM 19.0 °F 12.3 °F 5.0 °F 54% 29.87 in 10.0 mi NW 4.6 mph - N/A   Clear
6:53 AM 19.0 °F 10.0 °F 6.1 °F 57% 29.88 in 10.0 mi WNW 6.9 mph - N/A   Clear
7:53 AM 21.0 °F 11.4 °F 7.0 °F 55% 29.89 in 10.0 mi WNW 8.1 mph - N/A   Partly Cloudy
8:53 AM 23.0 °F 13.1 °F 8.1 °F 53% 29.90 in 10.0 mi WNW 9.2 mph 21.9 mph N/A   Mostly Cloudy
9:53 AM 26.1 °F 12.7 °F 9.0 °F 49% 29.89 in 10.0 mi WNW 18.4 mph 26.5 mph N/A   Partly Cloudy
10:53 AM 27.0 °F 14.7 °F 9.0 °F 47% 29.88 in 10.0 mi NW 16.1 mph 25.3 mph N/A   Partly Cloudy
11:53 AM 28.0 °F 17.5 °F 9.0 °F 45% 29.85 in 10.0 mi WNW 12.7 mph 23.0 mph N/A   Mostly Cloudy
12:53 PM 30.9 °F 18.1 °F 9.0 °F 40% 29.82 in 10.0 mi WNW 21.9 mph 28.8 mph N/A   Mostly Cloudy
1:53 PM 32.0 °F 22.1 °F 9.0 °F 38% 29.81 in 10.0 mi WNW 13.8 mph 27.6 mph N/A   Mostly Cloudy
2:53 PM 28.9 °F 19.2 °F 10.9 °F 47% 29.82 in 10.0 mi West 11.5 mph 21.9 mph N/A   Overcast
3:53 PM 30.0 °F 20.5 °F 12.9 °F 49% 29.83 in 10.0 mi WNW 11.5 mph 24.2 mph N/A   Overcast
4:53 PM 30.0 °F 20.5 °F 12.9 °F 49% 29.85 in 10.0 mi West 11.5 mph - N/A   Overcast
5:25 PM 28.4 °F 20.4 °F 17.6 °F 64% 29.86 in 5.0 mi NNW 8.1 mph 17.3 mph 0.00 in Snow Light Snow
5:32 PM 26.6 °F 17.5 °F 19.4 °F 74% 29.86 in 1.5 mi NNW 9.2 mph - 0.00 in Snow Light Snow
5:41 PM 26.6 °F 18.2 °F 21.2 °F 80% 29.87 in 3.0 mi NNW 8.1 mph - 0.00 in Snow Light Snow
5:53 PM 27.0 °F 18.0 °F 19.9 °F 75% 29.90 in 9.0 mi NNW 9.2 mph - 0.00 in   Mostly Cloudy
6:53 PM 26.1 °F 13.6 °F 8.1 °F 47% 29.94 in 10.0 mi NW 16.1 mph 26.5 mph N/A   Scattered Clouds
7:53 PM 25.0 °F 15.5 °F 8.1 °F 49% 29.98 in 10.0 mi NW 9.2 mph 18.4 mph N/A   Partly Cloudy
8:53 PM 26.1 °F 16.8 °F 7.0 °F 44% 29.98 in 10.0 mi WNW 9.2 mph 19.6 mph N/A   Overcast
9:53 PM 26.1 °F 19.4 °F 9.0 °F 49% 30.00 in 10.0 mi WNW 5.8 mph - N/A   Overcast
10:53 PM 26.1 °F 19.4 °F 10.9 °F 53% 29.99 in 10.0 mi WNW 5.8 mph - N/A   Mostly Cloudy
11:53 PM 27.0 °F 23.0 °F 10.9 °F 51% 30.00 in 10.0 mi Variable 3.5 mph - N/A   Overcast